Stations météo

Publicité
Garmisch-Partenkirchen, Allemagne (10963): Température de l'air & dewpoint: 12.09.2018 18:00:00 - 18.09.2018 18:00:00 (CEST)Garmisch-Partenkirchen, Allemagne (10963): Température de l'air 5cm & Température de l'air -5cm: 12.09.2018 18:00:00 - 18.09.2018 18:00:00 (CEST)Garmisch-Partenkirchen, Allemagne (10963): Température de l'air -20cm & Température de l'air -100cm: 12.09.2018 18:00:00 - 18.09.2018 18:00:00 (CEST)Garmisch-Partenkirchen, Allemagne (10963): Vitesse du vent & gusts: 12.09.2018 18:00:00 - 18.09.2018 18:00:00 (CEST)Garmisch-Partenkirchen, Allemagne (10963): Direction du vent: 12.09.2018 18:00:00 - 18.09.2018 18:00:00 (CEST)Garmisch-Partenkirchen, Allemagne (10963): reduced air pressure: 12.09.2018 18:00:00 - 18.09.2018 18:00:00 (CEST)Garmisch-Partenkirchen, Allemagne (10963): visibility: 12.09.2018 18:00:00 - 18.09.2018 18:00:00 (CEST)Garmisch-Partenkirchen, Allemagne (10963): Ensoleillement: 12.09.2018 18:00:00 - 18.09.2018 18:00:00 (CEST)Garmisch-Partenkirchen, Allemagne (10963): Quantités de précipitations: 12.09.2018 18:00:00 - 18.09.2018 18:00:00 (CEST)
Date & Time tt [°C] td [°C] tt 5cm [°C] tt -5cm [°C] tt -20cm [°C] tt -100cm [°C] ff [km/h] ff [knt] fx [km/h] fx [knt] dd ppp [hPa] vv [km] sd [min] rr [mm]
18.09.2018 18:00:00 15,2 14,8 15,1 18,7 19,8 17,3 8 4 29 16 WSW 1020,5 9 0 15,5
18.09.2018 17:00:00 18,9 17,4 18,0 21,4 19,3 17,3 9 5 16 8 SW 1017,0 6 0 0,4
18.09.2018 16:00:00 22,7 15,8 22,3 22,2 19,0 17,3 2 1 9 5 NNE 1015,5 65 0 0,0
18.09.2018 15:00:00 23,8 14,5 24,2 22,7 18,4 17,3 3 2 9 5 W 1015,6 60 7 0,0
18.09.2018 14:00:00 24,0 13,3 25,3 21,8 17,9 17,3 4 2 9 5 E 1015,9 48 8 0,0
18.09.2018 13:00:00 22,2 14,0 23,5 20,1 17,4 17,3 3 2 18 10 WSW 1016,8 50 1 0,0
18.09.2018 12:00:00 22,3 14,4 22,9 19,6 16,8 17,3 4 2 10 5 SSW 1016,9 66 23 0,0
18.09.2018 11:00:00 20,4 14,8 18,1 17,4 16,5 17,3 5 3 8 4 S 1017,8 52 38 0,0
18.09.2018 10:00:00 19,0 15,3 16,6 15,2 16,5 17,3 4 2 8 4 S 1018,3 45 57 0,0
18.09.2018 09:00:00 14,4 13,0 13,3 14,1 16,7 17,3 0 0 3 2 N 1019,7 33 53 0,0
18.09.2018 08:00:00 11,4 11,2 10,5 13,8 17,0 17,3 3 2 6 3 SW 1020,3 12 16 0,0
18.09.2018 07:00:00 10,9 10,7 9,9 14,0 17,3 17,3 3 2 6 3 SW 1020,0 14 0 0,0
18.09.2018 06:00:00 10,9 10,6 9,8 14,4 17,6 17,3 4 2 5 3 SSW 1019,8 8 0 0,0
18.09.2018 05:00:00 11,4 11,1 10,0 14,8 18,0 17,3 4 2 6 3 SW 1019,6 17 0 0,0
18.09.2018 04:00:00 11,6 11,3 11,0 15,2 18,3 17,3 3 2 8 4 WSW 1019,6 12 0 0,0
18.09.2018 03:00:00 11,8 11,5 11,0 15,7 18,7 17,3 5 3 7 4 SW 1019,6 13 0 0,0
18.09.2018 02:00:00 12,4 12,1 10,8 16,3 19,1 17,3 2 1 7 4 WSW 1019,5 23 0 0,0
18.09.2018 01:00:00 13,2 12,8 11,9 16,9 19,5 17,3 2 1 6 3 NW 1019,6 25 0 0,0
18.09.2018 00:00:00 13,3 12,9 12,6 17,5 19,9 17,3 6 3 10 6 S 1019,9 16 0 0,0
17.09.2018 23:00:00 13,8 13,2 12,5 18,3 20,4 17,3 4 2 9 5 SW 1020,1 16 0 0,0
17.09.2018 22:00:00 14,8 13,9 14,0 19,2 20,8 17,3 3 1 7 4 SW 1019,8 24 0 0,0
17.09.2018 21:00:00 15,9 14,6 14,9 20,2 21,2 17,3 4 2 8 4 WSW 1019,3 41 0 0,0
17.09.2018 20:00:00 17,3 15,0 16,3 21,4 21,6 17,3 4 2 10 5 SW 1018,6 43 0 0,0
17.09.2018 19:00:00 21,3 13,9 19,6 23,0 21,8 17,3 6 3 18 10 ENE 1017,1 69 35 0,0
17.09.2018 18:00:00 23,1 13,6 24,0 24,4 21,8 17,3 9 5 29 16 NE 1016,7 72 60 0,0
17.09.2018 17:00:00 22,8 13,7 25,0 25,1 21,6 17,3 10 6 31 17 NNE 1016,9 59 21 0,0
17.09.2018 16:00:00 23,7 13,3 25,4 27,0 21,1 17,3 11 6 32 18 NE 1017,0 54 55 0,0
17.09.2018 15:00:00 24,2 14,7 28,8 26,9 20,3 17,3 10 6 23 12 NE 1017,1 48 60 0,0
17.09.2018 14:00:00 23,5 13,3 28,5 26,0 19,5 17,3 10 5 23 12 NE 1017,9 75 60 0,0
17.09.2018 13:00:00 23,0 11,3 27,0 24,7 18,6 17,3 8 4 18 10 ENE 1018,6 61 60 0,0
17.09.2018 12:00:00 22,1 13,0 25,0 22,4 17,8 17,3 5 3 10 5 S 1019,3 75 60 0,0
17.09.2018 11:00:00 20,2 15,2 19,7 19,8 17,4 17,3 4 2 8 4 S 1020,8 63 60 0,0
17.09.2018 10:00:00 17,5 13,9 17,2 17,0 17,3 17,4 3 1 9 5 WSW 1022,2 47 48 0,0
17.09.2018 09:00:00 15,1 14,4 14,7 16,3 17,4 17,4 3 2 6 4 S 1023,1 10 7 0,0
17.09.2018 08:00:00 14,1 13,9 13,9 16,0 17,5 17,4 2 1 7 4 NW 1023,1 29 0 0,0
17.09.2018 07:00:00 13,9 13,7 13,7 16,0 17,7 17,4 3 1 8 4 W 1022,7 16 0 0,0
17.09.2018 06:00:00 13,8 13,6 13,2 16,3 17,9 17,4 3 2 5 3 WSW 1022,6 12 0 0,0
17.09.2018 05:00:00 14,6 14,4 14,0 16,6 18,1 17,4 3 2 10 5 WSW 1022,3 17 0 0,8
17.09.2018 04:00:00 14,7 14,3 14,5 16,9 18,3 17,4 5 3 8 4 S 1022,3 24 0 0,2
17.09.2018 03:00:00 14,9 14,6 14,6 17,1 18,5 17,4 7 4 11 6 SSW 1022,1 8 0 1,1
17.09.2018 02:00:00 15,3 14,9 15,0 17,2 18,7 17,4 2 1 12 6 S 1022,4 7 0 1,1
17.09.2018 01:00:00 14,9 14,5 14,4 17,4 19,0 17,4 9 5 12 7 SSW 1022,5 15 0 0,3
17.09.2018 00:00:00 14,9 14,1 14,5 17,6 19,3 17,4 2 1 7 4 N 1022,8 36 0 0,0
16.09.2018 23:00:00 14,4 13,8 13,6 17,9 19,7 17,4 3 1 10 5 SSW 1022,6 39 0 0,0
16.09.2018 22:00:00 14,7 14,1 14,0 18,6 20,0 17,4 2 1 6 4 W 1022,3 22 0 0,0
16.09.2018 21:00:00 15,4 14,4 14,5 19,6 20,4 17,4 2 1 8 4 WSW 1021,8 36 0 0,0
16.09.2018 20:00:00 17,1 15,5 15,5 20,9 20,7 17,4 2 1 4 2 SW 1020,3 41 0 0,0
16.09.2018 19:00:00 19,7 15,4 18,4 22,3 20,9 17,4 4 2 16 9 SSE 1019,2 55 19 0,0
16.09.2018 18:00:00 21,3 14,7 21,6 24,0 20,8 17,5 8 4 23 12 ENE 1018,4 59 60 0,0
16.09.2018 17:00:00 22,2 13,7 24,0 25,6 20,3 17,5 9 5 19 10 NE 1018,3 70 60 0,0
16.09.2018 16:00:00 22,2 14,2 26,2 25,9 19,7 17,5 9 5 21 12 NE 1018,5 64 60 0,0
16.09.2018 15:00:00 21,6 14,2 25,7 25,6 18,8 17,5 10 6 24 13 E 1019,2 63 60 0,0
16.09.2018 14:00:00 20,2 12,5 24,4 24,5 17,9 17,5 13 7 23 12 ENE 1020,0 75 60 0,0
16.09.2018 13:00:00 19,6 12,7 23,4 22,7 17,0 17,5 9 5 17 9 E 1020,5 67 60 0,0
16.09.2018 12:00:00 18,8 12,7 22,1 20,4 16,2 17,5 8 4 19 10 ENE 1021,1 56 60 0,0
16.09.2018 11:00:00 19,3 13,0 21,0 17,7 15,7 17,5 6 3 13 7 E 1021,1 45 60 0,0
16.09.2018 10:00:00 16,7 12,8 15,3 14,3 15,6 17,5 4 2 9 5 SSE 1022,1 65 60 0,0
16.09.2018 09:00:00 12,3 11,8 11,5 13,2 15,8 17,5 3 2 5 3 S 1023,6 36 44 0,0
16.09.2018 08:00:00 9,8 9,6 9,4 12,8 16,1 17,5 2 1 6 4 S 1024,6 9 7 0,0
16.09.2018 07:00:00 9,4 9,1 8,7 13,1 16,4 17,5 0 0 5 3 N 1024,7 16 0 0,0
16.09.2018 06:00:00 9,9 9,6 9,3 13,5 16,7 17,5 0 0 5 3 N 1024,6 21 0 0,0
16.09.2018 05:00:00 10,2 10,1 9,7 13,9 17,0 17,5 3 1 7 4 SW 1024,7 10 0 0,0
16.09.2018 04:00:00 10,3 10,0 9,6 14,4 17,3 17,5 2 1 5 3 WSW 1025,2 12 0 0,0
16.09.2018 03:00:00 11,6 11,4 11,0 14,9 17,6 17,5 3 1 8 4 WSW 1025,1 20 0 0,0
16.09.2018 02:00:00 11,7 11,4 11,2 15,4 17,9 17,5 3 2 7 4 WSW 1025,6 15 0 0,0
16.09.2018 01:00:00 12,3 11,8 11,4 16,2 18,2 17,5 4 2 6 4 SSW 1025,6 12 0 0,0
16.09.2018 00:00:00 14,4 13,3 13,8 17,1 18,4 17,5 3 1 7 4 NW 1025,1 31 0 0,0
15.09.2018 23:00:00 14,4 13,5 14,3 17,3 18,6 17,5 3 2 6 3 WSW 1025,0 25 0 0,0
15.09.2018 22:00:00 14,9 13,3 14,7 17,7 18,8 17,5 2 1 5 3 NNW 1024,9 27 0 0,0
15.09.2018 21:00:00 15,1 13,6 15,0 18,1 19,0 17,5 4 2 7 4 SSW 1024,7 36 0 0,0
15.09.2018 20:00:00 15,3 13,7 15,0 18,6 19,1 17,5 3 2 5 3 WSW 1023,9 32 0 0,0
15.09.2018 19:00:00 16,0 13,4 15,8 19,2 19,3 17,5 2 1 5 3 SW 1023,3 37 0 0,0
15.09.2018 18:00:00 16,4 13,0 16,6 19,8 19,4 17,5 4 2 12 7 SE 1023,0 29 0 0,0
15.09.2018 17:00:00 16,7 13,0 17,0 20,7 19,3 17,5 5 3 17 9 ENE 1022,9 32 0 0,0
15.09.2018 16:00:00 17,0 12,5 18,2 22,2 18,9 17,5 9 5 17 9 NE 1022,9 35 15 0,0
15.09.2018 15:00:00 18,4 12,9 23,8 21,9 18,3 17,5 5 3 16 9 ENE 1022,5 41 15 0,0
15.09.2018 14:00:00 16,9 12,6 19,3 20,4 17,9 17,5 7 4 17 9 NE 1023,2 39 7 0,0
15.09.2018 13:00:00 14,9 13,0 15,3 18,5 17,7 17,5 9 5 19 11 E 1024,2 13 0 0,0
15.09.2018 12:00:00 15,0 14,0 15,5 18,3 17,5 17,5 9 5 17 9 E 1023,9 10 0 0,0
15.09.2018 11:00:00 15,0 13,5 15,2 17,4 17,3 17,5 5 3 11 6 ENE 1023,6 12 0 0,2
15.09.2018 10:00:00 14,7 13,8 14,6 16,5 17,3 17,5 0 0 4 2 N 1023,6 4,4 0 0,5
15.09.2018 09:00:00 13,9 13,1 13,8 16,0 17,4 17,5 3 1 5 3 NNE 1023,3 8 0 0,2
15.09.2018 08:00:00 13,4 12,9 13,5 15,7 17,5 17,5 0 0 5 3 N 1022,7 14 0 0,1
15.09.2018 07:00:00 13,2 12,8 13,0 15,6 17,7 17,5 3 2 8 4 WSW 1022,1 29 0 0,0
15.09.2018 06:00:00 12,6 12,2 12,5 15,6 17,9 17,5 4 2 9 5 WSW 1021,8 27 0 0,0
15.09.2018 05:00:00 13,0 12,4 12,2 15,9 18,1 17,5 2 1 7 4 NW 1021,8 42 0 0,0
15.09.2018 04:00:00 12,8 12,4 12,7 16,0 18,4 17,5 2 1 4 2 WSW 1021,7 47 0 0,0
15.09.2018 03:00:00 12,5 12,1 12,1 16,2 18,7 17,5 4 2 7 4 SW 1021,5 33 0 0,0
15.09.2018 02:00:00 13,2 12,8 12,8 16,7 19,0 17,5 4 2 6 3 SSW 1021,4 34 0 0,0
15.09.2018 01:00:00 13,5 13,0 13,0 17,3 19,3 17,5 4 2 9 5 SW 1021,1 28 0 0,0
15.09.2018 00:00:00 13,9 13,2 13,5 17,7 19,6 17,5 5 3 8 4 WSW 1020,9 34 0 0,0
14.09.2018 23:00:00 14,4 13,6 13,7 18,2 19,9 17,5 3 2 6 3 W 1020,8 53 0 0,0
14.09.2018 22:00:00 14,7 13,8 14,5 18,8 20,2 17,5 1 1 6 3 W 1020,3 64 0 0,0
14.09.2018 21:00:00 14,8 13,7 14,8 19,3 20,6 17,5 6 3 10 5 SSW 1020,1 58 0 0,0
14.09.2018 20:00:00 15,8 14,0 14,7 20,3 20,8 17,5 2 1 9 5 WSW 1019,2 64 0 0,0
14.09.2018 19:00:00 17,6 13,8 17,6 21,7 21,0 17,5 4 2 13 7 SE 1018,5 74 30 0,0
14.09.2018 18:00:00 18,6 13,1 18,8 22,9 20,9 17,5 6 4 15 8 NE 1017,9 75 43 0,0
14.09.2018 17:00:00 19,0 12,9 23,7 24,0 20,6 17,5 8 4 17 9 ENE 1018,0 73 39 0,0
14.09.2018 16:00:00 18,2 12,5 19,8 23,4 20,2 17,5 8 4 20 11 NE 1018,5 73 3 0,0
14.09.2018 15:00:00 17,9 13,3 20,4 23,9 19,7 17,5 11 6 23 12 ENE 1018,7 75 31 0,0
14.09.2018 14:00:00 18,0 13,8 21,6 22,2 19,2 17,5 11 6 21 11 ENE 1018,9 65 14 0,0
14.09.2018 13:00:00 16,8 13,7 17,6 21,4 18,8 17,5 8 4 14 8 NNE 1019,5 49 2 0,0
14.09.2018 12:00:00 16,7 13,0 18,2 20,7 18,4 17,4 6 4 11 6 NE 1019,6 75 20 0,0
14.09.2018 11:00:00 15,4 13,2 15,8 18,3 18,3 17,4 3 2 6 3 WSW 1020,0 75 0 0,1
14.09.2018 10:00:00 14,2 13,1 14,2 17,3 18,4 17,4 4 2 11 6 E 1020,2 51 0 0,0
14.09.2018 09:00:00 13,9 13,6 14,2 17,0 18,5 17,4 5 3 13 7 ESE 1019,8 22 0 0,1
14.09.2018 08:00:00 13,7 13,3 13,8 17,1 18,7 17,4 6 4 14 8 E 1019,6 8 0 0,1
14.09.2018 07:00:00 14,1 13,4 14,0 17,3 18,9 17,4 6 3 14 8 E 1019,0 46 0 0,9
14.09.2018 06:00:00 14,6 14,2 14,7 17,5 19,1 17,4 2 1 6 3 ESE 1018,6 5 0 1,4
14.09.2018 05:00:00 14,6 14,2 14,7 17,6 19,3 17,4 0 0 5 3 N 1018,5 6 0 1,1
14.09.2018 04:00:00 14,4 14,2 14,6 17,7 19,6 17,4 0 0 4 2 N 1018,6 4,3 0 0,9
14.09.2018 03:00:00 14,5 14,2 14,6 17,9 19,8 17,4 0 0 5 3 N 1018,7 21 0 0,4
14.09.2018 02:00:00 14,1 13,8 14,1 18,1 20,1 17,4 2 1 4 2 SW 1018,9 3,9 0 0,0
14.09.2018 01:00:00 14,5 14,3 14,3 18,4 20,4 17,4 4 2 8 4 WSW 1018,6 20 0 0,0
14.09.2018 00:00:00 14,9 14,6 14,3 18,8 20,8 17,4 0 0 7 4 N 1018,4 30 0 0,1
13.09.2018 23:00:00 15,0 14,7 14,9 19,1 21,1 17,4 6 4 11 6 S 1018,5 25 0 0,0
13.09.2018 22:00:00 15,1 14,6 15,1 19,2 21,6 17,4 3 2 10 6 SSW 1018,8 28 0 7,7
13.09.2018 21:00:00 15,8 15,0 15,6 20,0 22,4 17,4 6 3 13 7 ESE 1018,7 1,4 0 4,5
13.09.2018 20:00:00 16,5 15,4 16,3 22,6 22,7 17,3 4 2 20 11 SSW 1017,5 9 0 2,1
13.09.2018 19:00:00 18,6 16,3 18,3 24,4 22,9 17,3 4 2 13 7 SW 1015,8 25 0 0,0
13.09.2018 18:00:00 21,5 13,9 21,3 26,0 22,8 17,3 6 4 14 8 N 1014,7 72 0 0,0
13.09.2018 17:00:00 23,0 13,0 24,4 27,6 22,4 17,3 6 3 23 13 NE 1014,0 62 25 0,0
13.09.2018 16:00:00 24,0 13,0 28,4 27,7 21,9 17,3 13 7 27 14 NE 1014,0 54 22 0,0
13.09.2018 15:00:00 23,4 13,3 24,8 28,3 21,1 17,3 10 5 27 14 NE 1014,5 61 39 0,0
13.09.2018 14:00:00 24,0 12,6 28,7 27,3 20,2 17,3 15 8 30 16 NE 1014,9 56 60 0,0
13.09.2018 13:00:00 24,5 12,5 29,9 24,4 19,4 17,3 8 5 15 8 ENE 1015,3 73 20 0,0
13.09.2018 12:00:00 22,5 11,7 25,7 23,0 18,8 17,3 5 3 9 5 ESE 1016,5 57 21 0,0
13.09.2018 11:00:00 22,2 11,0 24,4 21,4 18,3 17,3 4 2 9 5 NE 1016,9 64 54 0,0
13.09.2018 10:00:00 17,7 12,0 17,2 17,8 18,3 17,3 6 3 13 7 SW 1018,1 75 20 0,0
13.09.2018 09:00:00 16,9 13,2 16,8 16,4 18,4 17,3 5 3 10 6 S 1018,3 56 58 0,0
13.09.2018 08:00:00 12,7 11,5 11,9 15,9 18,7 17,3 8 5 16 8 SW 1019,9 47 30 0,0
13.09.2018 07:00:00 12,0 11,1 11,3 16,0 19,0 17,3 2 1 9 5 WNW 1020,4 42 0 0,0
13.09.2018 06:00:00 11,7 11,0 10,9 16,4 19,4 17,3 3 2 6 4 NW 1020,6 47 0 0,0
13.09.2018 05:00:00 11,9 11,2 10,7 16,9 19,7 17,3 4 2 8 4 W 1020,2 37 0 0,0
13.09.2018 04:00:00 12,9 11,9 12,0 17,5 20,1 17,3 3 1 7 4 ESE 1019,5 50 0 0,0
13.09.2018 03:00:00 12,3 11,6 11,2 18,0 20,5 17,3 6 3 9 5 S 1020,1 47 0 0,0
13.09.2018 02:00:00 12,9 12,0 12,2 18,8 20,9 17,3 5 3 9 5 SSW 1020,4 39 0 0,0
13.09.2018 01:00:00 14,1 12,6 13,2 19,6 21,3 17,3 6 3 14 8 SW 1020,4 51 0 0,0
13.09.2018 00:00:00 15,3 13,3 14,5 20,4 21,6 17,3 3 2 8 4 SW 1020,4 61 0 0,0
12.09.2018 23:00:00 15,6 13,3 15,4 20,9 22,0 17,3 4 2 8 5 SSW 1020,6 52 0 0,0
12.09.2018 22:00:00 15,6 13,3 15,4 21,7 22,4 17,3 3 2 6 3 S 1020,8 61 0 0,0
12.09.2018 21:00:00 16,0 13,5 15,4 22,9 22,8 17,3 3 2 7 4 SSW 1020,6 49 0 0,0
12.09.2018 20:00:00 18,7 14,7 17,5 24,5 23,1 17,3 0 0 7 4 N 1019,2 54 0 0,0
12.09.2018 19:00:00 23,7 12,5 21,4 26,6 23,1 17,3 4 2 19 11 SE 1017,6 68 49 0,0
12.09.2018 18:00:00 26,6 11,7 26,9 27,9 22,8 17,2 8 4 21 12 NE 1017,0 75 56 0,0

tt = Température de l'air
td = dewpoint
tt 5cm = Température de l'air 5cm
tt -5cm = Température de l'air -5cm
tt -20cm = Température de l'air -20cm
tt -100cm = Température de l'air -100cm
ff = Vitesse du vent
fx = gusts
dd = Direction du vent
ppp = reduced air pressure
vv = visibility
sd = Ensoleillement
rr = Quantités de précipitations

stations d'obs. à proximité